Location: ActonStarParty
(42.4766°N, 71.4538°W)
Time: 06:09:22
(UTC-04:00)

OE (NEXTSAT) - Pass Details

Date: 19 April 2018
Orbit: 440 x 447 km, 46.0° (Epoch: 25 May)

Event Time Altitude Azimuth Distance (km) Brightness Sun altitude
Rises 20:14:48 0° 240° (WSW) 2,434 8.7 -8.2°
Reaches altitude 10° 20:16:57 10° 237° (WSW) 1,565 7.6 -8.6°
Maximum altitude 20:20:28 67° 155° (SSE) 487 4.4 -9.1°
Drops below altitude 10° 20:23:59 10° 72° (ENE) 1,568 6.7 -9.7°
Enters shadow 20:24:36 - 72° (ENE) 1,812 7.0 -9.8°
